Location: Mohawk View
(42.7837°N, 73.7885°W)
Time: 12:45:36
(UTC+00:00)

KORONAS-FOTON - Pass Details

Date: 17 June 2021
Orbit: 505 x 530 km, 82.4° (Epoch: 27 July)

Event Time Altitude Azimuth Distance (km) Brightness Sun altitude
Exits shadow 02:21:35 17° 191° (SSW) 1,373 5.6 -14.9°
Maximum altitude 02:24:30 80° 279° (W) 524 3.8 -15.2°
Drops below altitude 10° 02:28:19 10° 6° (N) 1,736 7.2 -15.6°
Sets 02:30:26 0° 8° (N) 2,624 8.2 -15.8°
